Simultaneous Nadir Overpasses (SNOs) Predictions

Prediction of SNOs between GOES-16 and METOP-C Satellite Orbit:

Table of predicted SNOs for the next 14.0 days since TLE Epoch: 6/15/2019
Index Date Time (GOES-16) GOES-16 Lat,Lon METOP-C Lat,Lon Distance(km) Time Diff (sec)
1 06/15/2019 02:40:03 0.01, -75.19 -0.40, -76.93 198.60 80
2 06/16/2019 02:16:45 0.01, -75.18 0.75, -71.94 369.31 80
3 06/17/2019 14:35:37 -0.01, -75.17 0.28, -76.50 151.01 80
4 06/18/2019 14:17:38 -0.00, -75.17 -0.81, -71.50 417.31 80
5 06/20/2019 02:36:38 0.00, -75.15 -0.22, -76.10 108.30 80
6 06/21/2019 02:13:18 -0.00, -75.14 0.88, -71.10 460.33 80
7 06/22/2019 14:32:12 0.00, -75.15 0.11, -75.67 58.95 80
8 06/25/2019 02:33:13 -0.00, -75.15 -0.03, -75.27 14.04 80
9 06/27/2019 14:31:26 0.00, -75.17 -0.06, -74.84 36.91 80




NCC Satellite Simultaneous Nadir Overpasses (SNOs) Prediction Service
